Temp
76 76 77 77 74 73 72 72 72 73 72 71 71 72 71 73 74 74 75 75 75 75 75 74 74 74 74 75 74 74 73 73 73 72 72 73 75 75 75 77 78 78 79
71 73 72 74 74 74 73 71 72 72 72 75 73 72 72 73 73 74 75 75 75 76 75 75 74 74 74 73 72 73 72 73 71 71 68 67 72 74 75 75 76 77 78
69 70 71 72 73 72 72 72 72 73 73 74 72 72 72 72 71 71 73 74 75 75 74 75 74 75 73 75 73 73 72 70 70 72 71 65 65 69 73 73 75 76 75
71 70 71 72 73 74 74 74 74 73 73 72 72 72 68 66 71 73 74 76 75 75 75 74 74 74 73 72 74 72 74 72 69 69 73 72 71 67 68 73 73 73 73
72 71 73 74 75 77 75 74 73 73 74 72 72 71 69 67 71 72 72 72 74 74 76 75 74 73 74 73 73 73 72 73 74 70 68 70 72 70 67 68 72 74 76
71 72 73 74 74 74 73 72 70 69 72 72 72 71 70 71 70 71 70 71 72 72 74 76 74 74 75 74 74 74 73 72 73 75 70 72 68 69 68 66 70 71 76
70 70 70 70 69 69 70 70 67 66 67 68 69 69 70 70 70 71 71 70 71 71 73 74 74 75 75 74 74 74 74 74 73 72 72 73 75 74 70 69 72 68 70
69 69 69 68 68 68 67 67 66 66 65 66 66 66 66 66 68 70 71 71 71 72 74 73 74 74 75 74 73 72 72 74 74 73 72 74 74 73 72 72 68 69 67
68 68 67 66 66 66 66 66 65 64 64 64 63 64 64 64 65 66 66 68 71 73 73 73 73 74 74 75 74 73 72 72 72 72 72 70 74 71 73 72 73 68 69
66 65 65 65 65 65 65 66 64 63 63 62 63 64 63 64 64 64 65 66 67 69 71 72 73 73 73 74 74 73 73 72 71 71 71 71 71 72 70 71 71 71 69
65 64 64 65 65 66 65 64 63 62 62 62 62 62 62 63 64 63 64 65 66 67 67 69 71 72 73 73 72 72 73 71 71 71 70 69 70 70 70 70 70 70 70
64 63 63 63 63 64 63 63 62 61 61 61 61 61 62 63 64 64 65 65 65 66 67 67 69 71 72 72 72 71 72 72 70 68 64 63 67 67 70 70 70 70 71
62 61 61 61 62 62 61 61 61 61 61 61 60 61 61 61 62 63 64 65 65 65 66 66 67 69 71 71 72 72 72 69 69 67 67 66 66 64 65 70 70 71 71
62 60 59 59 60 61 60 60 61 61 60 60 60 60 61 61 62 63 63 64 64 64 64 65 66 67 69 71 71 70 70 69 70 69 68 67 66 66 67 68 71 71 70
60 59 59 59 59 59 60 60 60 60 59 59 59 60 61 62 62 62 63 64 64 64 65 65 64 66 68 70 70 69 68 68 68 69 69 68 69 69 68 70 71 71 70
61 61 61 61 60 60 60 59 59 58 59 58 58 60 61 62 62 63 63 63 64 65 65 64 64 63 67 66 65 68 68 68 67 67 68 70 69 68 66 68 70 71 71
61 61 61 60 60 59 59 57 58 58 58 57 58 60 61 61 62 63 63 63 63 63 63 63 63 63 65 64 63 65 68 68 67 67 66 67 72 67 68 66 65 65 65
62 61 61 60 60 60 59 58 58 57 57 57 58 59 60 60 62 62 62 63 62 62 61 63 63 64 66 63 60 63 67 67 67 67 66 66 68 67 68 68 67 68 69
63 63 62 61 60 59 59 57 57 56 56 57 57 59 60 60 61 61 62 62 61 60 63 63 64 65 65 60 59 61 65 65 65 65 66 66 66 64 62 69 67 68 67
63 62 62 61 59 58 58 56 56 55 56 57 58 59 61 61 61 61 62 61 61 59 62 63 63 61 64 57 55 58 66 65 65 64 65 62 65 59 58 68 67 63 67
63 62 61 59 58 58 57 56 56 56 57 57 59 61 61 61 61 62 62 62 61 59 60 59 60 61 60 61 55 54 65 65 64 64 65 65 58 55 54 57 66 65 66
62 61 59 58 58 58 57 57 56 58 58 59 59 60 60 61 62 60 59 59 60 59 57 58 58 59 59 55 55 56 57 61 65 64 65 64 55 53 53 54 56 55 59
62 61 59 58 58 58 58 57 58 59 59 59 59 61 61 61 61 59 58 58 58 58 57 56 56 56 58 57 52 53 54 58 62 61 54 52 50 50 53 52 53 53 60
61 60 58 57 57 58 58 57 59 59 59 58 59 59 60 60 59 61 60 57 56 56 57 55 54 57 57 56 52 51 63 59 61 60 61 58 57 57 59 61 62 64 64
60 59 58 57 57 59 58 59 60 60 59 59 58 60 62 59 59 59 58 59 54 50 53 55 56 54 56 53 45 43 51 55 54 61 63 62 63 62 62 62 62 62 63
58 57 57 57 58 58 58 59 61 59 59 59 60 61 60 61 59 60 60 50 47 44 42 42 47 54 47 44 42 41 43 44 48 63 63 62 61 60 61 60 59 60 60
MSLP
1012.20 1012.80 1013.30 1013.78 1014.42 1014.69 1014.94 1015.33 1015.91 1016.23 1016.76 1017.21 1017.48 1017.67 1017.59 1017.58 1017.41 1017.27 1017.08 1017.14 1017.24 1017.52 1017.65 1017.80 1017.96 1018.12 1018.36 1018.48 1018.67 1018.97 1019.26 1019.43 1019.68 1019.85 1019.43 1019.01 1018.86 1018.88 1018.79 1018.54 1018.42 1018.44 1018.42
1012.33 1012.82 1013.39 1013.75 1014.00 1014.20 1014.81 1015.46 1015.76 1016.07 1016.34 1016.63 1016.90 1016.95 1016.78 1016.69 1016.94 1016.93 1016.59 1016.40 1016.51 1016.71 1016.84 1016.87 1017.07 1017.28 1017.59 1017.92 1018.24 1018.53 1018.80 1018.94 1019.16 1019.44 1019.76 1019.25 1018.54 1018.16 1017.95 1017.89 1017.95 1017.99 1018.01
1012.47 1012.98 1013.35 1013.58 1013.79 1014.07 1014.57 1014.91 1015.00 1015.18 1015.61 1016.01 1016.29 1016.21 1016.37 1016.31 1016.18 1016.19 1015.98 1015.71 1015.62 1015.97 1015.89 1016.06 1016.19 1016.57 1016.73 1016.98 1017.28 1017.67 1017.93 1018.21 1018.54 1018.66 1018.86 1019.15 1018.66 1018.27 1017.36 1017.26 1017.35 1017.41 1017.55
1012.65 1012.94 1013.23 1013.59 1013.63 1013.65 1014.02 1014.11 1014.34 1014.60 1015.20 1015.58 1015.99 1015.93 1015.79 1015.98 1015.31 1015.13 1014.95 1014.65 1014.78 1015.07 1015.25 1015.27 1015.48 1015.63 1015.94 1016.34 1016.31 1016.54 1016.85 1017.36 1017.82 1018.25 1018.16 1018.04 1018.18 1018.22 1017.89 1017.35 1017.11 1017.15 1017.11
1012.34 1012.70 1012.94 1013.37 1013.39 1013.47 1013.62 1013.86 1014.46 1014.83 1015.21 1015.34 1015.51 1015.78 1015.55 1015.01 1014.51 1014.54 1014.38 1014.24 1014.21 1014.15 1014.21 1014.30 1014.41 1015.02 1015.15 1015.22 1015.45 1015.75 1016.07 1016.32 1016.49 1016.98 1017.33 1017.52 1017.58 1017.83 1017.97 1017.57 1017.21 1016.83 1016.51
1012.50 1012.80 1013.00 1013.21 1013.50 1013.76 1013.97 1014.32 1014.58 1015.09 1015.13 1015.42 1015.52 1015.67 1015.72 1015.41 1015.19 1014.68 1014.33 1013.96 1013.65 1013.59 1013.53 1013.43 1013.68 1013.79 1014.11 1014.24 1014.41 1014.62 1014.84 1015.11 1015.29 1015.50 1016.05 1016.40 1016.52 1016.73 1017.06 1017.17 1016.72 1016.54 1015.84
1012.72 1013.10 1013.39 1013.72 1014.26 1014.51 1014.73 1014.84 1014.92 1015.45 1015.53 1015.60 1015.75 1015.75 1015.61 1015.40 1015.18 1014.70 1014.33 1013.94 1013.47 1013.20 1012.88 1012.76 1012.82 1012.91 1012.83 1013.09 1013.30 1013.57 1013.81 1014.01 1014.25 1014.51 1014.84 1015.14 1015.31 1015.73 1015.84 1016.17 1015.98 1016.14 1015.90
1012.98 1013.45 1013.86 1014.40 1014.82 1014.66 1014.85 1015.02 1015.41 1015.69 1015.80 1015.76 1015.71 1015.56 1015.36 1015.16 1014.81 1014.47 1014.12 1013.79 1013.38 1012.90 1012.50 1012.34 1012.12 1012.00 1012.00 1012.13 1012.31 1012.55 1012.75 1012.84 1013.23 1013.45 1013.74 1014.05 1014.37 1014.58 1014.88 1015.12 1015.73 1015.89 1015.71
1013.15 1013.74 1014.21 1014.39 1014.42 1014.86 1015.16 1015.46 1015.76 1015.89 1015.92 1015.89 1015.74 1015.51 1015.26 1015.02 1014.76 1014.34 1014.06 1013.67 1013.12 1012.62 1012.16 1011.84 1011.54 1011.28 1011.19 1011.13 1011.33 1011.52 1011.64 1012.02 1012.17 1012.44 1012.81 1013.20 1013.10 1013.73 1014.12 1014.24 1014.48 1014.89 1014.86
1013.22 1013.85 1014.19 1014.50 1014.94 1015.18 1015.39 1015.59 1015.68 1015.73 1015.86 1015.88 1015.69 1015.38 1015.07 1014.70 1014.41 1014.07 1013.62 1013.23 1012.81 1012.33 1011.76 1011.30 1010.99 1010.66 1010.36 1010.22 1010.35 1010.43 1010.51 1011.03 1011.30 1011.79 1011.99 1012.37 1012.64 1013.16 1013.35 1013.46 1013.73 1013.95 1014.14
1013.34 1013.97 1014.49 1014.93 1015.16 1015.36 1015.49 1015.63 1015.87 1016.00 1015.90 1015.65 1015.42 1015.03 1014.68 1014.46 1014.11 1013.76 1013.29 1012.86 1012.36 1011.85 1011.34 1010.77 1010.23 1009.86 1009.52 1009.31 1009.27 1009.22 1009.54 1009.91 1010.14 1010.49 1010.70 1009.73 1012.11 1012.65 1012.89 1013.24 1013.37 1013.20 1013.39
1013.48 1014.14 1014.72 1015.03 1015.28 1015.50 1015.72 1015.93 1015.99 1015.96 1015.89 1015.53 1015.07 1014.71 1014.42 1014.10 1013.73 1013.22 1012.73 1012.22 1011.69 1011.13 1010.66 1010.16 1009.57 1008.97 1008.47 1008.23 1008.15 1008.03 1008.19 1008.71 1009.08 1009.38 1009.70 1009.69 1010.11 1011.42 1012.11 1012.36 1012.45 1012.19 1012.13
1013.73 1014.43 1014.94 1015.21 1015.40 1015.56 1015.72 1015.77 1015.85 1015.62 1015.22 1015.02 1014.77 1014.44 1014.13 1013.79 1013.34 1012.76 1012.20 1011.66 1011.13 1010.59 1010.04 1009.51 1008.87 1008.18 1007.45 1007.01 1006.82 1006.80 1007.00 1007.65 1007.82 1008.30 1008.72 1008.37 1008.10 1008.46 1009.46 1011.28 1010.39 1010.86 1010.81
1013.65 1014.29 1014.95 1015.15 1015.32 1015.48 1015.59 1015.58 1015.21 1015.03 1014.93 1014.77 1014.46 1014.11 1013.64 1013.22 1012.65 1012.11 1011.65 1011.10 1010.54 1009.95 1009.19 1008.50 1007.88 1007.24 1006.57 1005.99 1005.89 1005.81 1006.10 1006.77 1006.90 1007.09 1007.44 1007.61 1007.73 1008.12 1008.87 1007.39 1007.98 1008.28 1008.97
1013.61 1014.12 1014.63 1015.06 1015.25 1015.39 1015.25 1015.03 1015.00 1014.77 1014.73 1014.59 1014.22 1013.70 1013.15 1012.62 1012.08 1011.51 1010.84 1010.21 1009.59 1008.95 1008.24 1007.27 1006.54 1006.00 1005.51 1004.96 1004.92 1005.14 1005.18 1005.60 1006.12 1006.27 1006.57 1006.97 1007.36 1007.74 1008.01 1007.69 1007.58 1007.61 1007.53
1013.20 1013.77 1014.42 1014.73 1014.89 1014.83 1014.94 1015.11 1015.16 1014.83 1014.62 1014.40 1013.88 1013.18 1012.72 1012.04 1011.42 1010.63 1009.99 1009.34 1008.67 1007.82 1006.69 1005.74 1004.98 1004.68 1004.21 1003.77 1003.81 1004.11 1004.22 1004.43 1004.89 1005.13 1005.26 1005.73 1006.12 1006.34 1006.70 1006.91 1006.47 1006.86 1006.98
1012.78 1013.39 1013.83 1014.12 1014.36 1014.77 1014.75 1014.85 1014.80 1014.55 1014.34 1014.06 1013.49 1012.94 1012.27 1011.59 1010.80 1010.07 1009.62 1008.94 1008.01 1006.99 1005.38 1004.08 1003.58 1003.18 1003.00 1002.77 1002.75 1003.05 1003.31 1003.52 1003.69 1004.14 1004.66 1005.12 1005.26 1005.74 1005.84 1006.09 1006.49 1006.42 1006.64
1012.31 1012.93 1013.38 1013.70 1013.86 1013.89 1014.37 1014.41 1014.43 1014.35 1014.13 1013.77 1013.22 1012.48 1011.89 1011.24 1010.51 1009.77 1009.17 1008.55 1007.77 1006.20 1003.54 1002.71 1002.46 1002.16 1001.74 1001.58 1001.57 1002.01 1002.53 1002.76 1003.04 1003.38 1003.82 1004.35 1004.63 1005.08 1005.27 1005.57 1006.18 1005.94 1006.05
1011.63 1011.93 1012.46 1012.97 1013.32 1013.80 1014.13 1014.27 1014.24 1014.24 1014.00 1013.46 1012.79 1012.17 1011.66 1011.00 1010.31 1009.44 1008.69 1008.41 1007.60 1005.62 1003.26 1002.55 1001.98 1001.45 1000.88 1000.57 1000.61 1001.18 1001.66 1002.10 1002.39 1002.92 1003.38 1003.71 1004.04 1004.41 1004.84 1004.91 1005.11 1005.23 1005.20
1011.21 1011.70 1012.24 1012.73 1013.35 1013.62 1013.93 1014.21 1014.07 1013.99 1013.53 1012.88 1012.37 1011.77 1011.28 1010.76 1010.16 1009.24 1008.55 1008.48 1007.73 1006.25 1004.65 1002.91 1002.07 1001.51 1000.74 1000.56 1000.53 1000.97 1000.93 1001.24 1001.52 1001.94 1002.50 1002.95 1003.13 1003.58 1003.92 1004.23 1004.22 1004.74 1004.24
1011.03 1011.54 1012.03 1012.46 1013.03 1013.41 1013.73 1013.79 1013.64 1013.48 1013.03 1012.49 1011.90 1011.26 1010.90 1010.45 1009.79 1008.97 1008.46 1008.23 1007.80 1006.29 1005.67 1004.59 1003.11 1002.19 1001.58 1000.98 1000.74 1000.65 1000.71 1000.86 1001.48 1001.80 1001.88 1002.06 1002.57 1002.77 1003.36 1003.60 1003.61 1003.53 1003.93
1010.76 1011.23 1011.66 1012.19 1012.55 1013.03 1013.16 1013.18 1013.21 1012.89 1012.57 1012.08 1011.43 1010.96 1010.47 1009.91 1009.27 1008.82 1008.50 1008.34 1007.81 1007.11 1006.31 1005.38 1004.03 1003.12 1002.55 1001.89 1001.37 1000.83 1000.74 1000.69 1000.96 1001.38 1001.63 1001.85 1001.93 1002.47 1003.04 1003.34 1003.30 1003.48 1003.74
1010.40 1010.87 1011.48 1012.01 1012.38 1012.49 1012.67 1012.98 1012.56 1012.51 1012.18 1011.67 1011.21 1010.93 1010.13 1009.40 1008.92 1008.78 1008.79 1008.78 1008.17 1007.56 1007.04 1006.30 1005.22 1004.17 1003.51 1002.77 1002.47 1001.74 1001.10 1001.04 1001.37 1001.56 1002.07 1002.16 1002.42 1002.71 1002.90 1002.80 1002.85 1002.86 1003.03
1010.20 1010.67 1011.35 1011.92 1012.23 1011.99 1012.14 1012.26 1012.18 1012.01 1011.93 1011.46 1010.98 1010.70 1009.86 1009.25 1009.08 1008.95 1008.98 1008.86 1008.46 1008.16 1007.78 1007.20 1006.48 1005.39 1004.59 1003.88 1002.98 1002.35 1001.76 1001.84 1002.02 1002.05 1002.43 1002.62 1002.77 1002.98 1003.29 1003.33 1003.13 1002.84 1002.72
1009.89 1010.47 1010.96 1011.16 1011.28 1011.37 1011.54 1011.60 1011.71 1011.59 1011.67 1011.28 1010.98 1010.63 1009.85 1009.58 1009.33 1008.96 1009.16 1009.00 1008.98 1008.80 1008.52 1007.83 1007.41 1006.85 1005.69 1005.54 1004.64 1004.36 1003.18 1002.95 1003.00 1002.85 1003.03 1003.32 1003.63 1003.78 1003.53 1003.93 1003.93 1003.54 1003.50
1009.78 1010.25 1010.40 1010.57 1010.78 1011.10 1011.02 1011.10 1011.15 1011.24 1011.36 1011.16 1010.77 1010.37 1009.80 1009.48 1008.94 1008.82 1008.78 1009.22 1009.06 1008.75 1008.55 1008.50 1008.17 1007.46 1006.93 1006.26 1005.72 1004.94 1004.42 1004.02 1003.79 1003.61 1003.82 1004.27 1004.61 1004.63 1004.30 1004.24 1005.06 1005.19 1004.59
Wind_Speed
7 9 9 8 7 7 8 9 9 8 7 4 4 5 6 5 6 7 10 9 10 10 10 8 8 7 8 9 8 5 7 6 4 2 3 5 7 7 7 6 6 7 8
5 6 7 8 11 10 8 7 8 7 7 6 3 3 4 4 4 5 9 9 10 12 11 12 10 10 8 9 8 9 5 5 6 4 1 3 3 4 8 7 7 9 7
9 7 8 8 8 8 8 9 10 10 8 9 4 4 2 3 3 5 6 9 11 12 12 12 10 10 9 9 11 10 11 8 5 9 4 2 5 2 2 6 6 8 6
5 6 8 7 7 7 7 10 11 11 7 9 6 9 6 5 5 7 9 9 10 13 12 11 11 12 9 10 10 9 11 9 8 3 7 3 3 3 3 2 2 5 7
8 8 8 7 7 4 5 4 1 1 4 7 9 8 8 6 7 5 8 8 8 11 12 12 13 12 10 12 12 11 11 10 9 7 3 8 7 4 5 9 4 2 4
6 5 5 4 3 6 8 6 8 5 2 5 5 6 7 8 6 8 6 7 6 7 10 11 11 13 13 13 12 14 14 13 12 10 9 9 4 8 8 8 9 7 6
6 6 7 5 6 7 7 6 7 6 5 5 4 4 5 6 8 9 7 8 7 5 10 11 11 11 13 13 13 13 14 13 13 14 11 11 11 7 4 6 7 6 3
6 6 6 7 7 7 6 7 6 5 5 5 5 5 5 3 4 5 6 7 8 8 9 9 11 12 12 13 13 11 11 14 13 16 13 11 11 9 9 8 5 5 4
7 8 7 6 7 6 6 5 4 2 3 4 4 4 4 4 5 7 7 7 9 9 11 10 11 12 12 13 13 11 14 12 13 14 13 11 10 8 8 9 9 8 9
7 7 7 7 4 4 3 3 3 5 4 5 4 5 7 6 6 6 8 9 9 11 12 12 12 13 13 12 12 12 12 12 9 9 11 10 9 8 7 9 8 8 9
9 8 6 5 5 3 2 3 3 4 5 5 5 5 6 7 7 8 9 9 10 10 11 13 13 14 14 13 12 13 12 14 14 13 10 5 6 7 6 7 9 9 9
9 8 6 5 4 2 1 3 3 4 5 6 5 6 7 7 8 9 11 11 11 11 12 13 14 15 15 15 14 14 13 15 13 12 10 11 7 9 12 11 14 12 11
8 7 6 5 4 5 4 4 5 6 4 5 5 6 7 7 9 10 11 11 12 13 13 13 14 15 16 15 15 14 11 14 15 16 16 18 17 16 14 15 15 12 10
10 7 5 6 6 5 4 6 5 4 5 6 6 7 8 9 9 10 11 12 12 14 14 15 16 16 16 16 15 14 13 14 16 16 16 15 18 22 23 20 22 15 12
7 7 7 6 6 6 6 4 5 5 5 7 7 9 9 9 10 11 11 11 13 14 17 17 17 17 15 13 14 13 14 14 15 16 14 14 17 18 11 7 10 12 11
8 8 7 7 7 6 5 4 6 7 4 6 8 9 9 10 11 12 12 12 14 16 18 19 16 14 13 19 18 17 14 14 14 14 13 12 15 12 11 14 17 16 13
9 8 9 7 6 6 6 6 6 5 5 6 8 9 10 11 13 12 12 13 15 19 21 19 14 14 15 19 18 22 15 14 14 14 11 10 9 11 10 11 12 11 14
8 8 7 7 6 3 5 5 5 5 6 8 8 9 10 12 13 11 11 13 14 19 21 11 11 12 11 17 17 21 17 12 11 11 10 10 10 11 12 12 14 12 10
9 7 5 5 4 5 6 5 6 5 6 7 8 9 10 12 12 11 10 10 14 20 18 8 9 10 12 13 17 16 11 11 11 10 10 11 11 12 16 12 11 10 9
5 6 6 4 4 6 5 5 6 5 6 6 9 9 10 10 11 9 8 5 11 16 16 14 9 10 8 6 6 11 7 10 8 8 10 15 12 14 14 11 8 8 8
8 6 7 7 7 5 5 6 5 6 6 7 9 8 8 8 8 8 7 7 7 11 14 16 14 13 11 8 8 9 6 5 5 6 6 6 14 12 14 12 8 11 6
7 8 6 6 6 5 4 5 6 5 6 7 8 8 7 6 5 6 7 7 5 9 12 12 12 11 12 15 13 4 7 5 4 3 3 3 10 13 12 9 10 12 9
7 5 6 6 5 5 4 5 6 5 6 7 7 8 8 5 6 6 7 5 5 4 6 8 10 12 11 11 21 10 10 8 4 4 7 10 8 7 5 1 6 7 5
8 5 6 6 6 6 5 7 6 5 5 6 8 8 8 8 6 5 4 4 5 5 5 6 7 9 10 10 8 9 4 7 7 6 6 7 8 9 5 5 4 3 3
5 5 7 7 8 6 6 5 5 3 5 5 6 8 5 5 3 3 4 4 1 1 3 3 3 5 9 7 10 9 7 6 7 6 7 7 7 8 10 10 10 7 7
4 5 8 7 6 5 5 5 4 4 4 4 4 6 4 5 3 3 4 2 3 3 4 5 5 1 7 15 15 8 5 10 11 6 6 6 6 6 8 8 6 6 9
Wind_Direction
200 188 185 173 149 169 175 179 177 186 174 177 198 221 233 244 236 227 227 216 213 208 211 220 225 209 216 229 213 216 228 240 225 282 287 270 238 236 238 238 242 237 235
172 156 149 165 183 194 186 173 199 198 190 198 201 198 185 212 228 243 239 227 219 216 210 216 221 210 215 215 201 202 218 233 180 201 192 292 298 242 222 217 224 232 230
172 158 161 175 182 192 182 191 199 199 197 187 168 202 208 244 196 225 243 227 226 229 220 213 219 217 215 219 214 203 208 226 195 201 180 208 241 318 270 222 220 224 221
146 156 161 189 196 214 184 200 205 204 193 176 199 225 226 225 236 234 237 240 220 231 220 218 217 214 209 218 218 214 213 210 219 201 228 216 165 208 309 307 236 216 225
163 167 177 186 211 189 200 228 187 212 170 194 206 221 246 240 258 251 237 241 230 223 223 212 212 217 214 215 215 213 208 206 215 207 178 223 223 211 221 265 274 273 234
148 157 136 159 63 46 57 65 81 56 106 182 224 242 258 266 278 276 265 256 241 226 234 229 219 218 218 216 214 215 213 212 213 212 203 213 189 210 216 237 246 253 270
159 166 166 115 83 84 87 88 79 61 38 42 32 343 298 287 270 279 280 277 271 245 236 230 226 226 222 222 214 213 218 213 213 209 210 216 225 224 200 220 246 242 248
172 169 149 133 146 110 91 76 66 49 20 8 348 335 326 304 291 283 285 281 276 269 259 238 237 229 228 223 220 219 222 220 220 219 216 213 227 213 209 220 204 249 245
161 157 140 124 105 96 83 76 56 18 357 344 322 305 299 298 287 292 289 286 283 278 270 252 250 246 235 226 221 218 221 219 222 220 223 219 224 219 221 216 212 210 252
145 141 128 125 110 108 104 65 29 3 329 309 302 307 309 302 285 281 283 276 280 284 283 274 257 250 244 231 223 225 223 215 212 222 222 214 227 232 219 219 225 220 228
153 144 134 131 128 113 72 18 338 303 305 314 295 299 305 300 303 301 293 283 279 274 276 276 268 256 250 240 224 221 217 210 215 211 201 161 232 237 229 231 232 219 212
146 144 149 147 152 160 278 262 274 286 271 271 300 301 297 293 296 288 283 286 283 281 269 272 269 261 250 241 228 221 207 210 206 188 164 179 173 218 237 233 230 222 212
142 152 158 176 188 219 235 252 246 254 300 316 299 296 288 283 285 286 291 291 288 289 285 274 268 266 256 244 227 220 209 188 194 188 196 206 211 198 208 223 218 214 211
172 168 172 199 215 233 246 249 289 327 316 312 305 297 290 285 284 284 285 285 284 283 281 276 270 261 260 250 236 215 202 191 211 210 214 213 208 215 219 207 209 196 194
173 181 196 209 227 244 258 303 307 303 303 301 302 292 289 284 282 279 275 279 284 281 278 280 269 261 256 254 240 215 203 199 206 215 217 215 219 220 236 246 226 210 192
187 192 205 210 227 247 269 289 274 275 280 291 290 288 288 291 285 283 286 290 293 290 284 277 261 252 252 253 231 212 209 203 209 222 225 213 209 204 206 220 217 209 199
185 194 208 210 226 231 236 252 266 288 298 291 293 298 299 297 294 297 300 296 305 304 292 275 254 245 252 249 228 209 217 214 217 216 210 210 211 197 199 221 239 239 222
189 207 198 210 220 224 256 269 278 295 303 301 296 304 311 306 304 305 303 309 315 317 304 264 254 251 256 246 220 205 216 214 212 210 204 204 201 194 197 199 214 224 221
197 204 187 198 204 224 243 260 289 294 290 288 304 310 309 307 304 304 308 313 332 338 328 286 282 272 266 236 222 207 203 212 211 204 208 210 203 205 201 200 204 214 216
188 189 188 188 195 231 228 241 265 283 302 307 304 302 303 307 300 302 307 304 348 337 344 343 352 336 312 359 280 203 200 205 201 197 205 209 207 198 187 204 190 219 231
194 166 181 193 206 220 209 248 288 297 290 292 296 302 299 302 294 316 326 315 318 339 1 348 359 6 357 343 323 198 209 212 191 203 211 211 206 196 198 198 199 218 179
168 189 191 198 206 209 205 274 288 282 286 289 297 293 285 291 313 341 340 325 325 12 351 346 355 10 2 8 353 265 231 189 184 189 164 189 201 213 216 205 233 232 217
197 188 192 209 210 207 201 258 259 273 290 300 300 301 288 317 358 349 349 340 333 336 6 349 352 353 348 5 358 340 71 63 66 65 89 89 80 77 65 175 243 229 216
204 174 176 201 225 219 217 228 264 270 280 303 303 318 321 341 350 348 332 332 344 352 6 350 348 344 3 345 352 354 56 80 82 92 69 74 93 92 53 336 13 38 48
169 171 190 197 218 210 228 236 261 263 271 293 299 288 309 323 320 293 295 337 40 284 328 325 351 343 342 345 323 319 349 30 23 67 66 64 61 60 72 50 16 26 37
173 184 201 199 213 216 236 257 251 214 249 282 288 285 312 300 323 320 319 171 311 349 21 338 352 2 281 316 309 316 21 38 22 56 69 68 69 70 84 73 64 35 33